Location: Cosy Dell
(34.2789°N, 117.4537°W)
Time: 21:19:16
(UTC+00:00)

Cosmos 2322 Rocket - Pass Details

Date: 14 July 2020
Orbit: 832 x 851 km, 71.0° (Epoch: 13 August)

Event Time Altitude Azimuth Distance (km) Brightness Sun altitude
Rises 11:16:25 0° 349° (NNW) 3,403 5.8 -16.6°
Reaches altitude 10° 11:19:07 10° 358° (N) 2,468 5.2 -16.2°
Maximum altitude 11:24:12 34° 63° (ENE) 1,377 4.0 -15.4°
Drops below altitude 10° 11:29:17 10° 126° (SE) 2,467 4.8 -14.6°
Sets 11:31:58 0° 136° (SE) 3,401 5.4 -14.1°
